Regional Weather Roundup
Issued by NWS Sterling, VA

Home | Current Version | Previous Version | Text Only | Print | Product List | Glossary Off
Versions: 1 2 3 4 5 6 7 8 9 10 11 12 13 14 15 16 17 18 19 20 21 22 23 24 25 26 27 28 29 30 31 32 33 34 35 36 37 38 39 40 41 42 43 44 45 46 47 48 49 50

361
ASUS41 KLWX 231910
RWRLWX

REGIONAL WEATHER ROUNDUP
NATIONAL WEATHER SERVICE BALTIMORE MD/WASHINGTON DC
300 PM EDT THU MAR 23 2017

Note: "FAIR" indicates few or no clouds below 12,000 feet
with no significant weather and/or obstructions to visibility.
 TC=TEMPERATURE CELSIUS

 * =Non NWS site. Station does not report precipitation (e.g. rain,
    snow, etc.), thunder, or fog.

DCZ001-MDZ009-015-VAZ040>042-051-053>054-232000-
WASHINGTON METRO

CITY           SKY/WX    TMP DP  RH WIND       PRES   REMARKS
WASHINGTON NAT MOSUNNY   45   6  20 S8        30.59F
DULLES         MOSUNNY   45   4  18 CALM      30.57F
ANDREWS AFB    SUNNY     44   6  21 VRB5      30.57F
FT BELVOIR     SUNNY     46   4  18 VRB3      30.59F
QUANTICO       MOSUNNY   43  17  35 S7        30.61F
COLLEGE PARK*  SUNNY     43   7  22 SE3       30.58F
LEESBURG*      SUNNY     46  14  27 NW6       30.57F
MANASSAS*      SUNNY     45   4  18 VRB5      30.58F
GAITHERSBURG*  SUNNY     43   7  22 W7        30.60F

$$

MDZ006>007-011-014-232000-
BALTIMORE METRO

CITY           SKY/WX    TMP DP  RH WIND       PRES   REMARKS
BWI AIRPORT    MOSUNNY   44   2  17 W5        30.57F
MD SCIENCE CTR   N/A     46   5  18 MISG      30.61F
MARTIN STATE   SUNNY     43  19  39 SE9       30.60F
ANNAPOLIS      SUNNY     39  21  48 SE13      30.60F
FORT MEADE*    SUNNY     45   5  19 NW3       30.60F

$$

MDZ012-015-019>023-232000-
MARYLAND EASTERN SHORE

CITY           SKY/WX    TMP DP  RH WIND       PRES   REMARKS
OCEAN CITY     SUNNY     36  16  44 E7        30.61F
SALISBURY      SUNNY    N/A N/A N/A NE3       30.59F
BAY BRIDGE AP* SUNNY     41  10  28 S5        30.60F
CAMBRIDGE*     SUNNY     41   7  24 N5G12     30.61F
EASTON*        SUNNY     43   5  21 W7        30.64F

$$

MDZ017>025-232000-
SOUTHERN MARYLAND

CITY           SKY/WX    TMP DP  RH WIND       PRES   REMARKS
PATUXENT RIVER MOSUNNY   39  11  31 E8        30.61F
ST INIGOES     SUNNY     39  13  34 E5        30.61F
LEONARDTOWN*   SUNNY     41  12  30 S5        30.61F

$$

MDZ003>005-232000-
NORTH CENTRAL MARYLAND

CITY           SKY/WX    TMP DP  RH WIND       PRES   REMARKS
FREDERICK*     SUNNY     46  10  23 W7        30.60F
HAGERSTOWN APT SUNNY     42   4  20 E3        30.54F
WESTMINSTER*   SUNNY     43   5  21 W7        30.54F

$$

MDZ501>502-232000-
WESTERN MARYLAND

CITY           SKY/WX    TMP DP  RH WIND       PRES   REMARKS
OAKLAND*       SUNNY     41   7  24 S7        30.40F
CUMBERLAND*    SUNNY     46   7  19 SW6       30.54F

$$

VAZ025>031-232000-
SHENANDOAH VALLEY

CITY           SKY/WX    TMP DP  RH WIND       PRES   REMARKS
WINCHESTER*    SUNNY     43   9  24 CALM      30.53F
FRONT ROYAL*   SUNNY     46  12  25 SW5       30.52F
LURAY*         SUNNY     48  18  29 SE3       30.51F
NEW MARKET*    SUNNY     47  13  25 CALM      30.50F
STAUNTON*      SUNNY     44  13  28 SW6       30.52F
WAYNESBORO*    SUNNY     46  14  27 SE7       30.50F

$$

WVZ021-048>050-054>055-232000-
EASTERN WEST VIRGINIA PANHANDLE

CITY           SKY/WX    TMP DP  RH WIND       PRES   REMARKS
MARTINSBURG    SUNNY     43   3  19 CALM      30.53F
PETERSBURG*    SUNNY     51  17  26 E5        30.48F

$$

VAZ036>039-050-232000-
CENTRAL FOOTHILLS

CITY           SKY/WX    TMP DP  RH WIND       PRES   REMARKS
CHARLOTTESVILL SUNNY     48   8  19 NE3       30.54F
CULPEPER*      SUNNY     47  11  23 S5        30.58F
ORANGE*        SUNNY     45  12  26 W5        30.57F
GORDONSVILLE*  SUNNY     47  10  22 SW5       30.55F
WARRENTON*     SUNNY     49   0  13 SW7       30.56F

$$

VAZ055>057-232000-
NORTH AND CENTRAL PIEDMONT

CITY           SKY/WX    TMP DP  RH WIND       PRES   REMARKS
FREDERICKSBRG* SUNNY     46  13  26 CALM      30.58F
STAFFORD*      SUNNY     45   9  23 SW6       30.62F

$$

NCZ024-NYZ072-PAZ021-071-VAZ022-071-232000-
OTHER REGIONAL OBSERVATIONS

CITY           SKY/WX    TMP DP  RH WIND       PRES   REMARKS
NEW YORK CITY  SUNNY     40   0  18 VRB7      30.55F
PHILADELPHIA   MOSUNNY   42   6  22 S12       30.57F
PITTSBURGH     MOSUNNY   44   3  18 SE6       30.44F
ROANOKE        MOSUNNY   49  13  23 VRB6      30.52F
RICHMOND       MOSUNNY   46  10  23 VRB3      30.58F
RALEIGH        MOSUNNY   53  18  25 SW7       30.55F

$$

ANZ530>537-232000-
MARINE OBSERVATIONS

STATION/POSITION TIME  TEMP    WIND        PRES
                       AIR SEA DIR/SP/G
                 (UTC) (F)     (DEG/KT/KT) (MB)
THOMAS PT LIGHT  1900   36 43  130/  6/  7   N/A
BALT KEY BRIDGE  1848   37     130/  6/  7 1035.9F
COVE POINT       1848   34      90/  4/  5 1037.4F
LEWISETTA        1842   35 47  100/  8/  9 1036.7F
SOLOMONS ISLAND  1848   36 45  100/  8/ 10   N/A
PINEY POINT      1848          100/  5/  6   N/A

$$





USA.gov is the U.S. government's official web portal to all federal, state and local government web resources and services.